Regional Weather Roundup
Issued by NWS

Home | Current Version | Previous Version | Text Only | Print | Product List | Glossary Off
Versions: 1 2 3 4 5 6 7 8 9 10 11 12 13 14 15 16 17 18 19 20 21 22 23 24 25 26 27 28 29 30 31 32 33 34 35 36 37 38 39 40 41 42 43 44 45 46 47 48 49 50

000
ASUS43 KIND 280109
RWRIN

WEATHER ROUNDUP FOR INDIANA
NATIONAL WEATHER SERVICE INDIANAPOLIS IN
900 PM EDT MON JUL 27 2015

NOTE: "FAIR" INDICATES FEW OR NO CLOUDS BELOW 12,000 FEET WITH NO
SIGNIFICANT WEATHER AND/OR OBSTRUCTIONS TO VISIBILITY.

* - STATION DOES NOT REPORT WEATHER SUCH AS PRECIPITATION OR FOG.

+ - STATION NOT QUALITY CONTROLLED BY THE NATIONAL WEATHER SERVICE.
    USE DATA WITH CAUTION...ESPECIALLY DEWPOINT AND RELATIVE
    HUMIDITY OBSERVATIONS.

INZ001>003-010>013-019-020-280200-
NORTHWEST INDIANA

CITY           SKY/WX    TMP DP  RH WIND       PRES   REMARKS
GARY /AIRPORT/ MOCLDY    77  70  78 NE5       29.99S
KNOX *+        MOCLDY    77  63  61 NE3       29.98R
LA PORTE +     MOCLDY    77  68  75 NE3       30.00S
MICHIGAN CITY+ MOCLDY    73  66  78 CALM      30.00R
MONTICELLO +   MOCLDY    78  66  66 E5        29.97R
RENSSELAER +   MOCLDY    77  68  73 NE3       29.99R
VALPARAISO     CLOUDY    78  67  68 N3        30.00R

$$

LMZ046-743>745-280200-
SOUTHERN LAKE MICHIGAN

STATION/POSITION TIME  TEMP    WIND        PRES    WAVE
                       AIR SEA DIR/SP/G            HT
                 (UTC) (F)     (DEG/KT/KT) (MB)    (FT)
BURNS HARBOR     0000   75      50/  7/  8 1015.9R
MICHIGAN CITY    0000   75      30/  9/ 11   N/A
5NW MICH CITY    0100   76 75   60/ 12/ 16   N/A     2

$$

INZ004-005-014>016-021>024-280200-
NORTH CENTRAL INDIANA

CITY           SKY/WX    TMP DP  RH WIND       PRES   REMARKS
ELKHART        CLEAR     81  59  47 CALM      30.01R
GOSHEN         CLEAR     76  64  66 E3        30.00R
LOGANSPORT +   PTCLDY    77  59  53 CALM      29.99R
PERU/GRISSOM   MOCLDY    79  65  62 NE5       29.97R
ROCHESTER +    MOCLDY    79  64  61 NE5       30.00R
SOUTH BEND     PTCLDY    81  62  52 NE3       30.01R
WARSAW +       PTCLDY    75  63  64 NE3       30.00S

$$

INZ006>009-017-018-025>027-280200-
NORTHEAST INDIANA

CITY           SKY/WX    TMP DP  RH WIND       PRES   REMARKS
ANGOLA *+      CLEAR     77  70  78 E6        30.01S
AUBURN +       CLEAR     77  61  57 NE5       30.01S
FORT WAYNE     MOCLDY    76  63  64 E7        29.99S
HUNTINGTON +   PTCLDY    77  63  61 CALM      29.98S

$$

INZ028-029-035-036-043>045-051>053-280200-
WEST CENTRAL INDIANA

CITY           SKY/WX    TMP DP  RH WIND       PRES   REMARKS
CRAWFORDSVL +  PTCLDY    76  71  84 CALM        N/A
GREENCASTLE +  PTCLDY    79  70  73 CALM      29.96R
LAFAYETTE      MOCLDY    79  69  71 NE8       29.96R
TERRE HAUTE    PTCLDY    80  74  81 CALM      29.94R

$$

INZ030>032-037>040-046>048-054>057-064-065-280200-
CENTRAL INDIANA

CITY           SKY/WX    TMP DP  RH WIND       PRES   REMARKS
COLUMBUS       PTCLDY    81  72  74 NE5       29.95R
FISHERS *+     PTCLDY    75  75 100 E5        29.96R
FRANKFORT +    PTCLDY    78  72  81 NE7       29.99S
GREENWOOD *+   CLOUDY    81  70  69 NE6       29.97R
INDIANAPOLIS   MOCLDY    80  72  76 E5        29.95R
-EAGLE CREEK   MOCLDY    81  72  74 E5        29.95S
KOKOMO *+      MOCLDY    77  66  69 E5        29.98R
MARION +       CLOUDY    77  67  71 CALM      29.99R
MT COMFORT *+  PTCLDY    77 N/A N/A NE5       29.98S
SHELBYVILLE    PTCLDY    79  74  84 NE6       29.95R
ZIONSVILLE +   PTCLDY    79  70  74 E3        29.98S

$$

INZ033-034-041-042-049-050-058-059-280200-
EAST CENTRAL INDIANA

CITY           SKY/WX    TMP DP  RH WIND       PRES   REMARKS
MUNCIE         CLOUDY    78  70  76 E3        29.98S

$$

INZ060-061-067>069-081>083-085>088-280200-
SOUTHWEST INDIANA

CITY           SKY/WX    TMP DP  RH WIND       PRES   REMARKS
EVANSVILLE     MOCLDY    85  75  72 W3        29.93R
HUNTINGBURG *+ PTCLDY    82  75  78 CALM      29.93S
WASHINGTON +   PTCLDY    81  77  87 CALM      29.93R

$$

INZ062-063-066-070>080-084-089>092-280200-
SOUTH CENTRAL AND SOUTHEAST INDIANA

CITY           SKY/WX    TMP DP  RH WIND       PRES   REMARKS
BLOOMINGTON    PTCLDY    79  76  90 CALM      29.95R
MADISON *+     PTCLDY    81  73  78 CALM      29.97S
NORTH VERNON + PTCLDY    82  77  83 CALM      29.96R
SEYMOUR +      PTCLDY    82  75  78 CALM      29.93S

$$



USA.gov is the U.S. government's official web portal to all federal, state and local government web resources and services.